Temperature
14 14 14 13 13 13 13 13 13 13 13 13 13 13 14 14 14 14 14 15 15 15 15 15 15 15 15 15 15 15 15 15 15 15 15 15 15 15
13 13 13 13 13 13 13 13 13 13 13 13 13 13 13 13 13 13 14 14 15 15 15 15 15 14 14 14 14 14 14 14 14 15 14 14 14 15
13 13 13 13 13 13 13 13 13 13 14 13 12 12 12 13 13 13 13 14 14 14 15 14 14 13 13 13 13 13 13 14 14 14 14 14 14 14
12 12 12 12 13 13 13 13 13 13 14 13 13 13 13 13 13 13 13 13 13 13 13 12 12 12 12 13 13 13 13 13 13 14 14 14 14 14
12 12 12 12 12 12 13 12 13 13 13 13 13 13 13 12 12 12 12 12 12 12 12 12 12 12 12 12 13 13 13 13 13 13 13 13 13 14
12 12 12 12 12 12 12 12 13 12 13 13 13 12 12 12 12 12 12 12 12 12 12 12 12 12 12 12 12 12 12 12 12 13 13 13 13 13
11 11 11 12 12 12 12 13 13 13 13 13 12 12 12 12 12 11 11 11 11 11 12 12 12 12 11 11 11 11 12 12 12 12 12 12 12 12
11 11 11 12 12 12 12 12 12 13 13 13 12 12 12 11 11 11 11 11 11 11 11 11 11 11 11 11 11 11 11 11 11 11 11 12 12 12
11 11 11 11 12 12 12 12 12 12 12 12 12 11 11 11 11 11 11 11 10 10 10 11 11 10 10 10 10 10 10 10 10 11 11 11 11 11
11 11 11 11 11 11 12 12 11 11 11 11 11 11 10 10 10 10 10 10 10 10 10 10 10 10 9 9 9 9 9 9 10 10 10 10 10 10
11 11 11 11 11 11 11 11 11 11 11 11 11 10 10 10 10 10 10 10 9 9 9 9 9 9 9 9 9 9 9 9 9 9 9 9 10 10
11 11 11 11 11 11 11 11 11 11 10 10 10 10 10 9 9 9 9 9 9 9 9 9 9 9 9 8 8 8 8 8 8 9 9 9 9 9
11 11 10 10 10 10 10 10 10 10 10 9 9 9 9 8 8 8 8 8 8 8 8 8 8 8 8 8 8 8 8 8 8 8 8 8 8 8
11 11 10 10 10 10 9 9 9 9 9 9 8 8 8 8 7 8 8 8 8 8 8 8 7 7 8 8 7 7 7 7 7 7 7 7 7 6
11 11 10 10 9 9 8 8 8 8 8 8 7 7 7 7 7 7 7 7 7 7 7 7 7 7 7 7 7 7 7 6 6 6 6 6 6 6
10 10 9 9 9 8 8 8 8 8 7 7 7 7 7 7 7 7 7 7 7 6 6 6 6 6 7 7 7 6 6 6 6 6 6 6 5 5
10 10 9 9 9 8 8 8 8 7 7 7 7 7 6 6 6 6 6 6 6 6 6 6 6 6 6 6 6 6 6 6 5 5 5 5 5 4
10 10 9 9 9 9 8 8 8 8 7 7 7 6 6 6 6 6 6 6 6 6 6 6 6 6 6 6 6 6 6 5 5 5 5 4 4 4
10 10 10 9 9 9 9 8 8 8 7 7 7 7 6 6 6 6 6 6 6 6 6 6 6 6 6 6 6 5 5 5 5 4 4 4 3 3
10 10 10 9 9 9 9 9 8 8 8 8 7 7 7 7 6 6 6 6 6 5 5 5 5 5 5 6 5 5 5 5 4 4 4 3 3 3
10 10 10 9 9 9 9 9 9 9 8 8 8 8 7 7 7 6 6 6 5 5 5 5 5 5 5 5 5 5 5 4 4 4 3 3 2 2
10 10 10 9 9 9 10 10 9 9 9 8 8 8 8 7 7 6 6 6 5 5 5 5 5 5 5 5 5 5 4 4 4 3 3 3 2 1
10 10 10 10 9 10 10 10 9 9 9 9 9 8 8 8 7 7 6 6 6 5 5 5 5 5 5 5 4 4 4 4 3 3 3 2 2 2
Wind_Speed
7 7 6 6 7 7 6 6 6 5 3 2 2 4 4 6 8 10 10 14 14 11 8 6 7 9 10 10 10 9 9 8 8 6 6 6 7 8
3 4 5 5 6 7 7 6 4 4 4 3 3 2 3 6 10 11 11 14 16 14 11 9 10 11 11 11 11 10 10 9 8 7 6 7 8 8
1 2 3 4 5 5 5 4 3 4 8 4 2 2 3 7 7 9 10 10 13 17 16 15 15 14 13 13 13 13 12 12 11 10 9 9 10 10
4 3 4 5 6 6 6 5 4 5 9 8 3 4 6 5 7 7 6 9 10 14 15 14 14 13 13 14 14 14 14 13 12 11 10 10 11 12
8 7 6 7 6 5 6 6 6 7 7 9 6 4 6 5 6 5 6 5 6 9 11 12 12 12 13 13 14 14 14 14 13 12 10 10 10 11
8 7 6 5 5 6 7 9 10 10 10 10 8 5 5 4 4 4 4 4 5 6 6 8 9 9 10 11 12 13 14 15 16 17 15 14 14 13
8 7 6 8 8 7 8 10 10 10 9 10 8 6 4 4 4 2 3 2 3 5 3 5 5 5 7 9 11 14 14 14 15 16 17 17 18 18
7 6 8 11 15 16 15 12 9 9 9 7 6 6 3 3 2 2 2 2 3 4 4 4 4 5 5 8 12 14 14 15 14 14 15 16 17 18
5 6 7 7 10 11 13 14 13 11 9 8 8 5 4 3 3 3 2 2 2 3 3 4 4 4 5 8 13 14 15 17 17 18 18 18 18 19
4 6 7 6 6 10 11 11 10 8 6 6 7 4 3 2 2 2 2 2 2 3 4 4 4 3 3 4 11 15 16 17 17 18 19 21 21 20
5 5 7 7 8 12 13 12 12 10 12 14 13 11 11 9 3 2 3 3 2 3 4 3 3 3 3 2 6 13 15 16 17 17 19 22 23 20
5 5 7 9 10 11 11 12 12 7 7 9 10 11 10 11 11 6 3 3 2 2 4 4 3 3 3 2 4 7 10 13 15 16 18 20 21 16
6 5 5 11 12 12 11 9 10 9 9 10 9 8 8 8 8 7 5 4 4 3 4 2 2 2 2 3 3 4 6 7 9 11 15 18 19 15
8 6 6 11 13 13 11 12 13 10 8 8 7 6 5 5 5 6 8 8 7 5 5 3 2 3 2 3 3 5 4 7 8 8 10 14 15 16
8 11 12 13 12 10 12 12 9 8 7 7 6 4 3 3 3 3 5 5 6 8 9 7 3 2 3 3 3 4 5 6 9 8 9 10 11 11
9 12 12 12 9 10 8 7 5 6 6 6 5 4 3 3 4 3 4 4 6 6 8 10 7 4 3 3 4 5 5 5 7 7 7 8 9 11
12 7 5 5 5 5 5 5 5 5 5 4 5 5 4 4 3 3 3 4 4 4 6 6 6 4 4 4 4 5 5 5 6 6 6 8 10 11
13 10 8 7 7 7 7 5 4 5 5 5 5 5 4 4 4 3 3 4 4 3 4 5 6 4 3 4 5 5 4 4 5 6 6 7 10 11
11 11 10 9 8 8 8 7 6 5 5 5 5 5 4 4 3 3 3 3 3 2 3 4 4 4 4 4 4 6 5 4 6 8 9 7 8 10
10 13 11 10 9 9 8 7 7 7 5 5 5 5 4 3 3 2 2 2 2 2 3 3 4 4 3 3 3 4 6 5 5 8 10 8 8 9
11 11 11 10 9 9 9 9 9 9 7 6 6 5 5 4 3 2 2 3 2 1 2 3 4 5 3 2 2 2 3 5 4 4 6 9 11 12
12 11 10 10 9 9 9 10 10 9 9 7 6 6 5 4 4 4 3 3 2 1 1 2 3 3 2 1 2 3 4 5 5 5 4 6 8 10
13 11 10 10 9 8 9 11 12 10 9 9 8 7 6 5 4 4 4 4 3 2 1 1 2 2 3 2 2 3 4 5 5 5 4 6 8 8
Wind_Direction
239 223 213 211 210 210 203 191 182 178 162 140 96 31 51 76 82 79 71 61 53 51 61 84 92 84 76 67 57 47 38 36 32 20 357 328 309 303
236 220 215 213 210 202 193 181 169 165 140 104 88 52 68 95 91 84 75 62 48 45 61 90 102 91 76 63 53 43 34 27 19 7 347 324 312 302
323 204 184 166 157 145 138 134 146 144 126 108 76 62 88 94 86 78 68 61 51 49 62 81 92 90 82 71 61 54 46 38 29 15 358 335 317 306
32 75 100 108 104 108 110 111 122 122 128 124 95 70 74 77 84 75 62 59 55 54 62 73 82 84 80 71 63 55 47 39 31 20 8 353 336 320
45 52 64 78 76 88 106 115 111 109 108 112 99 70 73 67 77 69 58 47 49 48 54 58 65 74 73 67 59 49 40 32 24 17 8 357 345 332
52 54 64 82 98 111 119 122 119 112 108 107 101 83 72 62 74 74 67 41 38 31 40 46 49 64 64 58 47 35 25 18 13 10 6 358 346 334
62 61 81 107 115 118 124 122 121 117 112 108 103 91 74 66 69 63 80 66 54 26 18 33 31 43 44 40 33 22 14 8 4 2 360 354 345 336
91 78 82 88 89 87 88 89 103 118 117 110 106 103 96 90 89 84 84 75 46 9 9 18 25 37 35 40 33 32 26 18 9 0 353 348 343 335
120 110 97 84 90 95 83 74 68 80 113 126 122 129 133 145 131 115 106 95 78 359 3 16 11 22 23 32 33 37 34 29 24 17 6 354 343 333
101 118 114 95 97 107 95 81 69 60 83 99 113 113 113 148 154 131 125 101 45 32 22 19 354 357 353 9 26 32 32 27 23 22 17 6 353 339
68 85 106 97 101 109 105 99 88 78 76 81 80 75 67 57 69 104 97 101 75 24 19 12 349 335 326 338 3 14 17 16 13 13 12 8 0 353
83 74 90 104 104 106 111 113 108 99 97 86 69 55 54 48 45 54 83 106 93 47 13 359 353 348 348 354 352 4 8 3 3 6 6 5 4 9
129 115 101 106 100 97 100 107 120 116 100 93 83 71 59 52 47 48 52 79 88 59 357 340 354 5 358 339 346 355 9 5 2 6 5 2 5 16
147 136 118 107 102 102 101 110 110 102 97 91 84 70 60 53 50 59 65 70 73 66 10 16 41 20 17 30 1 343 353 11 8 6 8 7 14 18
147 141 130 114 101 98 106 110 107 104 100 97 94 83 62 35 46 62 53 60 65 53 38 28 35 53 55 39 11 3 354 359 7 9 15 22 25 19
133 130 120 109 102 103 96 90 90 103 113 112 109 99 81 72 62 66 62 51 48 25 23 29 27 35 53 45 40 32 20 6 2 7 19 29 25 21
141 130 127 126 122 118 110 107 107 114 112 119 123 116 100 88 75 70 76 72 61 26 4 4 13 48 58 41 38 31 25 25 10 359 8 18 18 12
146 155 159 161 160 156 150 141 136 132 132 138 136 129 120 110 99 83 84 89 78 39 10 0 360 23 57 71 40 16 19 10 357 360 4 2 7 7
156 169 172 175 173 169 167 163 161 155 151 152 145 141 134 126 121 117 120 116 101 59 22 10 15 21 17 11 24 34 6 352 353 2 3 359 356 356
175 178 180 181 178 178 178 173 163 158 160 162 155 151 150 147 146 144 146 140 121 79 36 25 18 5 340 328 323 342 7 358 353 354 356 355 352 345
185 183 182 181 184 186 185 179 173 172 173 171 171 168 167 165 166 163 154 142 133 100 41 14 345 326 283 268 280 327 360 7 9 347 346 353 352 355
185 184 183 182 183 184 181 179 178 178 178 182 183 181 180 181 179 177 174 170 166 148 31 355 350 9 42 17 350 336 335 345 351 359 25 23 1 358
185 185 184 184 183 180 179 182 185 187 188 191 190 189 187 186 184 181 183 183 176 182 212 323 20 33 33 13 345 333 336 341 342 336 331 348 351 345
Height
1435 1436 1437 1439 1441 1444 1447 1451 1455 1456 1459 1461 1462 1464 1465 1466 1468 1469 1469 1469 1469 1469 1468 1468 1468 1469 1469 1470 1471 1472 1473 1474 1475 1477 1479 1481 1483 1485
1430 1430 1432 1434 1436 1438 1441 1445 1448 1452 1454 1457 1459 1462 1464 1465 1467 1468 1468 1468 1467 1466 1465 1465 1466 1467 1467 1468 1469 1469 1470 1471 1471 1472 1473 1475 1476 1479
1426 1427 1428 1430 1432 1434 1438 1442 1446 1449 1451 1456 1459 1462 1465 1466 1467 1468 1468 1467 1465 1464 1463 1463 1464 1465 1466 1467 1467 1468 1468 1468 1468 1468 1469 1470 1472 1473
1426 1425 1426 1428 1431 1434 1437 1441 1445 1448 1451 1454 1459 1463 1465 1466 1467 1468 1468 1467 1466 1465 1464 1463 1464 1464 1465 1465 1465 1466 1466 1466 1465 1465 1465 1465 1466 1466
1427 1427 1427 1429 1431 1434 1438 1442 1445 1449 1452 1455 1459 1462 1464 1466 1468 1468 1468 1468 1467 1467 1466 1466 1465 1465 1465 1464 1464 1464 1464 1463 1462 1461 1460 1460 1460 1460
1430 1430 1431 1432 1434 1437 1440 1444 1447 1450 1454 1457 1460 1462 1464 1466 1467 1468 1469 1469 1469 1468 1468 1467 1467 1467 1465 1464 1464 1463 1463 1461 1460 1458 1456 1454 1454 1453
1434 1435 1436 1437 1438 1440 1443 1446 1449 1452 1455 1457 1460 1462 1465 1466 1468 1469 1470 1470 1470 1470 1469 1469 1468 1467 1466 1464 1463 1462 1461 1459 1457 1455 1452 1450 1448 1447
1439 1440 1441 1442 1443 1444 1447 1450 1452 1454 1456 1458 1460 1463 1466 1467 1468 1469 1470 1470 1470 1470 1469 1469 1468 1466 1465 1463 1462 1461 1460 1457 1455 1452 1450 1447 1444 1442
1443 1444 1446 1447 1447 1448 1450 1452 1454 1456 1458 1460 1462 1464 1466 1467 1468 1469 1469 1469 1468 1468 1468 1467 1467 1465 1464 1463 1462 1460 1458 1456 1453 1450 1447 1443 1440 1438
1446 1447 1448 1449 1450 1450 1451 1453 1455 1457 1459 1460 1462 1465 1466 1467 1468 1468 1468 1467 1467 1467 1467 1467 1467 1466 1465 1464 1462 1460 1458 1455 1452 1449 1445 1442 1438 1434
1448 1449 1449 1449 1450 1450 1451 1452 1455 1457 1459 1461 1463 1464 1466 1466 1467 1467 1467 1467 1467 1468 1468 1468 1467 1465 1465 1464 1462 1460 1457 1455 1452 1448 1444 1439 1434 1429
1448 1449 1449 1450 1450 1451 1452 1453 1455 1457 1459 1461 1463 1464 1465 1466 1466 1466 1466 1467 1467 1468 1468 1468 1467 1466 1465 1463 1461 1459 1456 1454 1451 1447 1443 1437 1431 1426
1448 1449 1449 1450 1451 1452 1453 1454 1455 1458 1460 1461 1463 1465 1465 1465 1466 1466 1466 1467 1467 1467 1468 1467 1466 1465 1464 1463 1461 1458 1456 1453 1450 1447 1442 1437 1430 1424
1448 1449 1450 1451 1451 1452 1453 1454 1456 1459 1460 1462 1463 1465 1466 1466 1467 1467 1467 1467 1467 1467 1467 1466 1465 1464 1463 1462 1460 1459 1456 1453 1450 1446 1441 1436 1431 1425
1448 1449 1450 1452 1453 1454 1454 1456 1458 1459 1461 1462 1464 1465 1467 1467 1468 1468 1467 1467 1467 1467 1466 1465 1464 1464 1463 1462 1460 1458 1456 1453 1450 1446 1441 1436 1430 1424
1447 1449 1451 1453 1455 1456 1456 1457 1459 1460 1462 1464 1465 1466 1467 1468 1468 1468 1468 1468 1467 1467 1466 1465 1464 1464 1463 1462 1461 1459 1456 1454 1450 1446 1442 1437 1431 1425
1445 1448 1451 1453 1455 1456 1457 1459 1460 1462 1463 1465 1466 1467 1467 1468 1468 1468 1468 1468 1468 1468 1468 1467 1465 1465 1464 1463 1461 1459 1457 1454 1451 1447 1442 1437 1432 1426
1442 1445 1449 1452 1455 1457 1458 1460 1462 1463 1464 1465 1466 1467 1468 1468 1468 1469 1469 1468 1469 1469 1468 1467 1466 1466 1465 1463 1463 1460 1458 1455 1451 1447 1443 1437 1432 1427
1439 1443 1446 1450 1453 1456 1459 1461 1462 1463 1464 1465 1466 1467 1468 1468 1469 1469 1469 1469 1469 1469 1468 1468 1467 1466 1465 1464 1463 1461 1458 1455 1452 1448 1443 1438 1433 1427
1435 1439 1443 1447 1451 1454 1457 1459 1461 1463 1464 1465 1466 1467 1468 1469 1469 1469 1469 1469 1469 1469 1468 1468 1467 1466 1465 1465 1463 1461 1458 1455 1452 1448 1443 1438 1434 1428
1431 1436 1440 1444 1448 1451 1454 1457 1459 1461 1463 1465 1466 1467 1468 1469 1469 1469 1469 1469 1469 1468 1468 1467 1466 1466 1465 1464 1463 1461 1458 1455 1452 1448 1444 1439 1433 1427
1427 1432 1436 1441 1445 1448 1451 1454 1457 1459 1461 1463 1465 1467 1468 1468 1469 1469 1468 1468 1468 1468 1467 1466 1465 1465 1465 1464 1462 1460 1458 1456 1453 1449 1445 1441 1436 1430
1423 1428 1432 1437 1441 1444 1448 1451 1454 1456 1459 1461 1463 1465 1466 1467 1468 1468 1468 1467 1467 1467 1467 1466 1465 1465 1464 1463 1461 1459 1457 1455 1452 1449 1446 1442 1438 1434